Tillbaka till svenska Fidonet
English   Information   Debug  
FILM   0/18
FNEWS_PUBLISH   4926
FN_SYSOP   42201
FN_SYSOP_OLD1   71952
FTP_FIDO   0/2
FTSC_PUBLIC   0/13972
FUNNY   0/4886
GENEALOGY.EUR   0/71
GET_INFO   105
GOLDED   0/408
HAM   7430/16660
HOLYSMOKE   0/6791
HOT_SITES   0/1
HTMLEDIT   0/71
HUB203   466
HUB_100   264
HUB_400   39
HUMOR   0/29
IC   0/2851
INTERNET   0/424
INTERUSER   0/3
IP_CONNECT   719
JAMNNTPD   0/233
JAMTLAND   0/47
KATTY_KORNER   0/41
LAN   0/16
LINUX-USER   0/19
LINUXHELP   0/1155
LINUX   0/22300
LINUX_BBS   0/957
mail   18.68
mail_fore_ok   249
MENSA   0/341
MODERATOR   0/102
MONTE   0/992
MOSCOW_OKLAHOMA   0/1245
MUFFIN   0/783
MUSIC   0/321
N203_STAT   938
N203_SYSCHAT   313
NET203   321
NET204   69
NET_DEV   0/10
NORD.ADMIN   0/101
NORD.CHAT   0/2572
NORD.FIDONET   189
NORD.HARDWARE   0/28
NORD.KULTUR   0/114
NORD.PROG   0/32
NORD.SOFTWARE   0/88
NORD.TEKNIK   0/58
NORD   0/453
OCCULT_CHAT   0/93
OS2BBS   0/787
OS2DOSBBS   0/580
OS2HW   0/42
OS2INET   0/37
OS2LAN   0/134
OS2PROG   0/36
OS2REXX   0/113
OS2USER-L   207
OS2   0/4830
OSDEBATE   0/18996
PASCAL   0/490
PERL   0/457
PHP   0/45
POINTS   0/405
POLITICS   0/29554
POL_INC   0/14731
PSION   103
R20_ADMIN   1133
R20_AMATORRADIO   0/2
R20_BEST_OF_FIDONET   16
R20_CHAT   0/896
R20_DEPP   0/3
R20_DEV   400
R20_ECHO2   1831
R20_ECHOPRES   0/35
R20_ESTAT   0/719
R20_FIDONETPROG...
...RAM.MYPOINT
  0/2
R20_FIDONETPROGRAM   0/22
R20_FIDONET   0/248
R20_FILEFIND   0/24
R20_FILEFOUND   0/22
R20_HIFI   0/3
R20_INFO2   3723
R20_INTERNET   0/12940
R20_INTRESSE   0/60
R20_INTR_KOM   0/99
R20_KANDIDAT.CHAT   42
R20_KANDIDAT   28
R20_KOM_DEV   112
R20_KONTROLL   0/13360
R20_KORSET   0/18
R20_LOKALTRAFIK   0/24
R20_MODERATOR   0/1852
R20_NC   76
R20_NET200   245
R20_NETWORK.OTH...
...ERNETS
  0/13
R20_OPERATIVSYS...
...TEM.LINUX
  0/44
R20_PROGRAMVAROR   0/1
R20_REC2NEC   534
R20_SFOSM   0/341
R20_SF   0/108
R20_SPRAK.ENGLISH   0/1
R20_SQUISH   107
R20_TEST   2
R20_WORST_OF_FIDONET   20
RAR   0/9
RA_MULTI   106
RA_UTIL   0/162
REGCON.EUR   0/2068
REGCON   0/13
SCIENCE   0/1206
SF   0/239
SHAREWARE_SUPPORT   0/5146
SHAREWRE   0/14
SIMPSONS   0/169
STATS_OLD1   0/2539.065
STATS_OLD2   0/2530
STATS_OLD3   0/2395.095
STATS_OLD4   0/1692.25
SURVIVOR   0/495
SYSOPS_CORNER   0/3
SYSOP   0/84
TAGLINES   0/112
TEAMOS2   0/4530
TECH   0/2617
TEST.444   0/105
TRAPDOOR   0/19
TREK   0/755
TUB   0/290
UFO   0/40
UNIX   0/1316
USA_EURLINK   0/102
USR_MODEMS   0/1
VATICAN   0/2740
VIETNAM_VETS   0/14
VIRUS   0/378
VIRUS_INFO   0/201
VISUAL_BASIC   0/473
WHITEHOUSE   0/5187
WIN2000   0/101
WIN32   0/30
WIN95   0/4291
WIN95_OLD1   0/70272
WINDOWS   0/1517
WWB_SYSOP   0/419
WWB_TECH   0/810
ZCC-PUBLIC   0/1
ZEC   4

 
4DOS   0/134
ABORTION   0/7
ALASKA_CHAT   0/506
ALLFIX_FILE   0/1313
ALLFIX_FILE_OLD1   0/7997
ALT_DOS   0/152
AMATEUR_RADIO   0/1039
AMIGASALE   0/14
AMIGA   0/331
AMIGA_INT   0/1
AMIGA_PROG   0/20
AMIGA_SYSOP   0/26
ANIME   0/15
ARGUS   0/924
ASCII_ART   0/340
ASIAN_LINK   0/651
ASTRONOMY   0/417
AUDIO   0/92
AUTOMOBILE_RACING   0/105
BABYLON5   0/17862
BAG   135
BATPOWER   0/361
BBBS.ENGLISH   0/382
BBSLAW   0/109
BBS_ADS   0/5290
BBS_INTERNET   0/507
BIBLE   0/3563
BINKD   0/1119
BINKLEY   0/215
BLUEWAVE   0/2173
CABLE_MODEMS   0/25
CBM   0/46
CDRECORD   0/66
CDROM   0/20
CLASSIC_COMPUTER   0/378
COMICS   0/15
CONSPRCY   0/899
COOKING   41444
COOKING_OLD1   0/24719
COOKING_OLD2   0/40862
COOKING_OLD3   0/37489
COOKING_OLD4   0/35496
COOKING_OLD5   9370
C_ECHO   0/189
C_PLUSPLUS   0/31
DIRTY_DOZEN   0/201
DOORGAMES   0/2285
DOS_INTERNET   0/196
duplikat   6102
ECHOLIST   0/18295
EC_SUPPORT   0/318
ELECTRONICS   0/359
ELEKTRONIK.GER   1534
ENET.LINGUISTIC   0/13
ENET.POLITICS   0/4
ENET.SOFT   0/11701
ENET.SYSOP   34296
ENET.TALKS   0/32
ENGLISH_TUTOR   0/2000
EVOLUTION   0/1335
FDECHO   0/217
FDN_ANNOUNCE   0/7068
FIDONEWS   25062
FIDONEWS_OLD1   0/49742
FIDONEWS_OLD2   0/35949
FIDONEWS_OLD3   0/30874
FIDONEWS_OLD4   0/37224
FIDO_SYSOP   12922
FIDO_UTIL   0/180
FILEFIND   0/209
FILEGATE   0/212
Möte HAM, 16660 texter
 lista första sista föregående nästa
Text 3628, 880 rader
Skriven 2010-04-29 23:30:20 av Amsat List (1:323/120.0)
Ärende: [keps]  orb10119.amsa
=============================
[keps]  orb10119.amsa

Return-Path: <keps-bounces@amsat.org>
X-Rcpt: craig.healy@chowda.com
X-UIDL: 1272596744.39964

SB KEPS @ AMSAT  $ORB10119.O
Orbital Elements  10119.OSCAR

HR AMSAT ORBITAL ELEMENTS FOR OSCAR SATELLITES
FROM WA5QGD FORT WORTH,TX April 29, 2010
Send Subscribe/unsubscribe to KEPS at http://www.amsat.org/mailman/listinfo/kep
BID: ORB10119.O
TO ALL RADIO AMATEURS BT

Satellite: AO-07
Catalog number: 07530
Epoch time:      10118.72280199
Element set:     763
Inclination:      101.4030 deg
RA of node:       136.5055 deg
Eccentricity:    0.0012236
Arg of perigee:   012.0575 deg
Mean anomaly:     348.0781 deg
Mean motion:   12.53578212 rev/day
Decay rate:       -2.7e-07 rev/day^2
Epoch rev:           62225
Checksum:              260

Satellite: FO-29
Catalog number: 24278
Epoch time:      10119.59114790
Element set:     299
Inclination:      098.5150 deg
RA of node:       315.4363 deg
Eccentricity:    0.0349739
Arg of perigee:   249.8968 deg
Mean anomaly:     106.4218 deg
Mean motion:   13.52949914 rev/day
Decay rate:        4.5e-07 rev/day^2
Epoch rev:           67653
Checksum:              352

Satellite: SO-33
Catalog number: 25509
Epoch time:      10118.98344329
Element set:     699
Inclination:      031.4332 deg
RA of node:       066.7657 deg
Eccentricity:    0.0354228
Arg of perigee:   219.6991 deg
Mean anomaly:     137.7154 deg
Mean motion:   14.28303845 rev/day
Decay rate:        5.0e-08 rev/day^2
Epoch rev:           60101
Checksum:              309

Satellite: RS-22
Catalog number: 27939
Epoch time:      10119.64657499
Element set:     137
Inclination:      097.9011 deg
RA of node:       347.1769 deg
Eccentricity:    0.0012917
Arg of perigee:   209.1093 deg
Mean anomaly:     150.9385 deg
Mean motion:   14.63409963 rev/day
Decay rate:       1.49e-06 rev/day^2
Epoch rev:           35185
Checksum:              337

Satellite: VO-52
Catalog number: 28650
Epoch time:      10119.03959676
Element set:     492
Inclination:      097.6957 deg
RA of node:       174.3800 deg
Eccentricity:    0.0028381
Arg of perigee:   078.0462 deg
Mean anomaly:     282.3928 deg
Mean motion:   14.81730787 rev/day
Decay rate:        1.0e-08 rev/day^2
Epoch rev:           26941
Checksum:              330

Satellite: SO-67
Catalog number: 35870
Epoch time:      10119.89174853
Element set:     679
Inclination:      097.3359 deg
RA of node:       170.2952 deg
Eccentricity:    0.0004146
Arg of perigee:   225.6584 deg
Mean anomaly:     238.2067 deg
Mean motion:   15.21175977 rev/day
Decay rate:   -3.27779e-03 rev/day^2
Epoch rev:            3411
Checksum:              349

Satellite: HO-68
Catalog number: 36122
Epoch time:      10119.60296865
Element set:     258
Inclination:      100.4727 deg
RA of node:       180.5165 deg
Eccentricity:    0.0007848
Arg of perigee:   085.6634 deg
Mean anomaly:     274.5379 deg
Mean motion:   13.16280385 rev/day
Decay rate:       -4.5e-07 rev/day^2
Epoch rev:            1782
Checksum:              316

/EX
SB KEPS @ AMSAT  $ORB10119.D
Orbital Elements  10119.MICROS

HR AMSAT ORBITAL ELEMENTS FOR THE MICROSATS
FROM WA5QGD FORT WORTH,TX April 29, 2010
Send Subscribe/unsubscribe to KEPS at http://www.amsat.org/mailman/listinfo/kep
BID: ORB10119.D
TO ALL RADIO AMATEURS BT

Satellite: UO-11
Catalog number: 14781
Epoch time:      10119.60815910
Element set:     227
Inclination:      098.0592 deg
RA of node:       171.1905 deg
Eccentricity:    0.0009893
Arg of perigee:   041.0096 deg
Mean anomaly:     319.1826 deg
Mean motion:   14.79794959 rev/day
Decay rate:        9.3e-07 rev/day^2
Epoch rev:           40462
Checksum:              315

Satellite: AO-16
Catalog number: 20439
Epoch time:      10119.76249733
Element set:     882
Inclination:      098.3283 deg
RA of node:       079.5857 deg
Eccentricity:    0.0010340
Arg of perigee:   315.1726 deg
Mean anomaly:     044.8611 deg
Mean motion:   14.31858630 rev/day
Decay rate:        2.9e-07 rev/day^2
Epoch rev:            5845
Checksum:              310

Satellite: LO-19
Catalog number: 20442
Epoch time:      10119.76800551
Element set:     792
Inclination:      098.2889 deg
RA of node:       085.5899 deg
Eccentricity:    0.0011241
Arg of perigee:   309.5447 deg
Mean anomaly:     050.4729 deg
Mean motion:   14.32089767 rev/day
Decay rate:      -1.16e-06 rev/day^2
Epoch rev:            5862
Checksum:              327

Satellite: AO-27
Catalog number: 22825
Epoch time:      10118.79999785
Element set:     515
Inclination:      098.4831 deg
RA of node:       068.0373 deg
Eccentricity:    0.0009230
Arg of perigee:   058.5091 deg
Mean anomaly:     301.7011 deg
Mean motion:   14.29295181 rev/day
Decay rate:        5.4e-07 rev/day^2
Epoch rev:           86499
Checksum:              326

Satellite: IO-26
Catalog number: 22826
Epoch time:      10118.87428804
Element set:     253
Inclination:      098.4751 deg
RA of node:       068.7292 deg
Eccentricity:    0.0009825
Arg of perigee:   052.8646 deg
Mean anomaly:     307.3432 deg
Mean motion:   14.29550569 rev/day
Decay rate:        2.4e-07 rev/day^2
Epoch rev:           86511
Checksum:              319

Satellite: GO-32
Catalog number: 25397
Epoch time:      10118.60588508
Element set:     172
Inclination:      098.3134 deg
RA of node:       128.7873 deg
Eccentricity:    0.0002153
Arg of perigee:   068.8083 deg
Mean anomaly:     291.3311 deg
Mean motion:   14.23176416 rev/day
Decay rate:       -6.1e-07 rev/day^2
Epoch rev:           61299
Checksum:              301

